{"data":{"norad_id":68901,"intl_designator":"2026-097G","name":"STARLINK-37360","alt_names":[],"object_type":"PAYLOAD","status":"ACTIVE","operator":null,"country":"US","launch_date":"2026-04-30","launch_site_code":"AFWTR","launch_vehicle":null,"mission":null,"orbit_class":"UNKNOWN","rcs_meters":null,"size_class":null,"mass_kg":null,"dimensions":null,"purposes":["comms"],"wikipedia_slug":null,"has_3d_model":false,"image_url":null,"decayed_at":null,"tle_current":{"epoch":"2026-09-19T23:07:36.519168Z","epoch_age_seconds":61786,"freshness":"FRESH","line1":"1 68901U 26097G   26262.96361712  .00014042  00000+0  43640-3 0  9991","line2":"2 68901  97.2878  97.1727 0001449  63.7894 296.3497 15.33449423 22018","mean_motion":15.33449423,"eccentricity":0.0001449,"inclination_deg":97.2878,"raan_deg":97.1727,"arg_perigee_deg":63.7894,"mean_anomaly_deg":296.3497,"bstar":0.0004364,"rev_number":2201,"period_min":93.90593379877,"perigee_km":464.53836742317,"apogee_km":466.52166212405,"semimajor_km":6843.6670147736,"source":"CELESTRAK","updated_at":"2026-09-20T09:00:44.046941Z"}}}